[TLELIST] Archives

 

[TLELIST] Current TLEs

March 14th 2023 PDT

HST 1 20580U 90037B 23072.40633718 .00007183 00000-0 39341-3 0 9992 2 20580 28.4691 184.9085 0003025 68.8171 344.0557 15.12322967606944 ISS (ZARYA) 1 25544U 98067A 23073.36569740 .00019001 00000-0 34864-3 0 9994 2 25544 51.6403 78.2673 0005725 83.4155 57.2753 15.49281621387083 CXO 1 25867U 99040B 23075.41392744 .00001121 00000-0 00000-0 0 9996 2 25867 38.7399 208.4399 9021198 253.0549 0.4930 0.37816239 12820 ...Continue Reading

[TLELIST] Current TLEs

March 14th 2023 PDT

HST 1 20580U 90037B 23072.40633718 .00007183 00000-0 39341-3 0 9992 2 20580 28.4691 184.9085 0003025 68.8171 344.0557 15.12322967606944 ISS (ZARYA) 1 25544U 98067A 23073.36569740 .00019001 00000-0 34864-3 0 9994 2 25544 51.6403 78.2673 0005725 83.4155 57.2753 15.49281621387083 CXO 1 25867U 99040B 23075.41392744 .00001121 00000-0 00000-0 0 9996 2 25867 38.7399 208.4399 9021198 253.0549 0.4930 0.37816239 12820 ...Continue Reading

[TLELIST] Current TLEs

March 13th 2023 PDT

HST 1 20580U 90037B 23071.41579759 .00008494 00000-0 46725-3 0 9996 2 20580 28.4691 191.4897 0002993 60.4471 348.8763 15.12309570606791 ISS (ZARYA) 1 25544U 98067A 23072.18799488 .00019339 00000-0 35521-3 0 9992 2 25544 51.6407 84.0968 0005877 78.5186 329.4010 15.49238013386903 CXO 1 25867U 99040B 23072.76983836 .00001103 00000-0 00000-0 0 9999 2 25867 38.7815 208.7173 9019956 252.8483 0.4313 0.37815795 12819 ...Continue Reading

[TLELIST] Current TLEs

March 13th 2023 PDT

HST 1 20580U 90037B 23071.41579759 .00008494 00000-0 46725-3 0 9996 2 20580 28.4691 191.4897 0002993 60.4471 348.8763 15.12309570606791 ISS (ZARYA) 1 25544U 98067A 23072.18799488 .00019339 00000-0 35521-3 0 9992 2 25544 51.6407 84.0968 0005877 78.5186 329.4010 15.49238013386903 CXO 1 25867U 99040B 23072.76983836 .00001103 00000-0 00000-0 0 9999 2 25867 38.7815 208.7173 9019956 252.8483 0.4313 0.37815795 12819 ...Continue Reading

[TLELIST] Current TLEs

March 13th 2023 PDT

HST 1 20580U 90037B 23071.41579759 .00008494 00000-0 46725-3 0 9996 2 20580 28.4691 191.4897 0002993 60.4471 348.8763 15.12309570606791 ISS (ZARYA) 1 25544U 98067A 23072.18799488 .00019339 00000-0 35521-3 0 9992 2 25544 51.6407 84.0968 0005877 78.5186 329.4010 15.49238013386903 CXO 1 25867U 99040B 23072.76983836 .00001103 00000-0 00000-0 0 9999 2 25867 38.7815 208.7173 9019956 252.8483 0.4313 0.37815795 12819 ...Continue Reading

[TLELIST] Current TLEs

March 12th 2023 PDT

HST 1 20580U 90037B 23071.34573609 .00008536 00000-0 46964-3 0 9998 2 20580 28.4691 191.9552 0002989 59.6890 327.4396 15.12308347607049 ISS (ZARYA) 1 25544U 98067A 23071.43150681 .00021322 00000-0 39105-3 0 9992 2 25544 51.6409 87.8416 0005753 76.1205 69.9283 15.49212518386789 CXO 1 25867U 99040B 23072.76983836 .00001103 00000-0 00000-0 0 9999 2 25867 38.7815 208.7173 9019956 252.8483 0.4313 0.37815795 12819 ...Continue Reading

[TLELIST] Current TLEs

March 12th 2023 PDT

HST 1 20580U 90037B 23071.34573609 .00008536 00000-0 46964-3 0 9998 2 20580 28.4691 191.9552 0002989 59.6890 327.4396 15.12308347607049 ISS (ZARYA) 1 25544U 98067A 23071.43150681 .00021322 00000-0 39105-3 0 9992 2 25544 51.6409 87.8416 0005753 76.1205 69.9283 15.49212518386789 CXO 1 25867U 99040B 23072.76983836 .00001103 00000-0 00000-0 0 9999 2 25867 38.7815 208.7173 9019956 252.8483 0.4313 0.37815795 12819 ...Continue Reading

[TLELIST] Current TLEs

March 11th 2023 PDT

HST 1 20580U 90037B 23069.78421285 .00008537 00000-0 47005-3 0 9993 2 20580 28.4694 202.3296 0002924 45.3259 103.5641 15.12280903606541 ISS (ZARYA) 1 25544U 98067A 23070.38949279 .00020448 00000-0 37604-3 0 9994 2 25544 51.6400 92.9989 0005506 69.7821 21.0237 15.49164690386628 CXO 1 25867U 99040B 23072.76983836 .00001103 00000-0 00000-0 0 9999 2 25867 38.7815 208.7173 9019956 252.8483 0.4313 0.37815795 12819 ...Continue Reading

[TLELIST] Current TLEs

March 10th 2023 PDT

HST 1 20580U 90037B 23068.70494491 .00009697 00000-0 53557-3 0 9990 2 20580 28.4690 209.4994 0002862 34.9440 346.5415 15.12262223606641 ISS (ZARYA) 1 25544U 98067A 23069.49665953 .00016359 00000-0 30307-3 0 9997 2 25544 51.6414 97.4159 0005599 69.6476 78.6048 15.49123493386487 CXO 1 25867U 99040B 23067.48244204 .00001102 00000-0 00000-0 0 9990 2 25867 38.8771 209.3042 9022657 252.4083 0.4903 0.37818766 12790 ...Continue Reading

[TLELIST] Current TLEs

March 10th 2023 PDT

HST 1 20580U 90037B 23068.70494491 .00009697 00000-0 53557-3 0 9990 2 20580 28.4690 209.4994 0002862 34.9440 346.5415 15.12262223606641 ISS (ZARYA) 1 25544U 98067A 23069.49665953 .00016359 00000-0 30307-3 0 9997 2 25544 51.6414 97.4159 0005599 69.6476 78.6048 15.49123493386487 CXO 1 25867U 99040B 23067.48244204 .00001102 00000-0 00000-0 0 9990 2 25867 38.8771 209.3042 9022657 252.4083 0.4903 0.37818766 12790 ...Continue Reading
  • This mailing list is a public mailing list - anyone may join or leave, at any time.
  • This mailing list is announce-only.

International Space Station (ISS) / Hubble Space Telescope (HST) / Chandra X-Ray Observatory Orbital Data via EMAIL

Privacy Policy:

Private list